Le nostre stazioni meteo in Italia

Pubblicità
Il mio iltempo24.it
Grosseto, Italia (16206): Temperatura & dewpoint: 13.06.2019 01:00:00 - 19.06.2019 01:00:00 (CEST)Grosseto, Italia (16206): velocità del vento: 13.06.2019 01:00:00 - 19.06.2019 01:00:00 (CEST)Grosseto, Italia (16206): direzione del vento: 13.06.2019 01:00:00 - 19.06.2019 01:00:00 (CEST)Grosseto, Italia (16206): reduced air pressure: 13.06.2019 01:00:00 - 19.06.2019 01:00:00 (CEST)Grosseto, Italia (16206): visibility: 13.06.2019 01:00:00 - 19.06.2019 01:00:00 (CEST)
Data & Tempo tt [°C] td [°C] ff [km/h] ff [kn] dd ppp [hPa] vv [km]
19.06.2019 01:00:00 17,0 15,2 9 5 N 1014,1 15
19.06.2019 00:00:00 18,2 15,5 5 3 O 1013,9 15
18.06.2019 23:00:00 19,6 15,9 4 2 ENE 1013,9 15
18.06.2019 22:00:00 20,0 17,0 8 4 E 1013,8 15
18.06.2019 21:00:00 21,0 17,8 9 5 S 1013,7 25
18.06.2019 20:00:00 23,4 16,9 16 9 S 1013,5 30
18.06.2019 19:00:00 25,6 15,3 18 10 SSO 1013,3 30
18.06.2019 18:00:00 27,4 14,4 24 13 SO 1013,2 30
18.06.2019 17:00:00 29,4 15,9 21 11 SO 1013,4 30
18.06.2019 16:00:00 29,8 16,9 22 12 SO 1013,6 25
18.06.2019 15:00:00 29,8 17,6 22 12 SO 1013,8 30
18.06.2019 14:00:00 29,4 17,9 22 12 SO 1014,1 10
18.06.2019 13:00:00 28,6 17,5 15 8 SO 1014,4 30
18.06.2019 12:00:00 28,2 18,0 21 11 SO 1014,4 30
18.06.2019 11:00:00 27,4 17,0 8 4 ONO 1014,2 25
18.06.2019 10:00:00 26,2 17,3 4 2 NE 1014,4 25
18.06.2019 09:00:00 23,0 16,5 4 2 N 1014,5 20
18.06.2019 08:00:00 21,0 16,6 8 4 ENE 1014,2 20
18.06.2019 07:00:00 17,0 16,2 2 1 N 1013,9 20
18.06.2019 06:00:00 17,2 14,5 4 2 N 1013,8 20
18.06.2019 05:00:00 17,8 16,0 2 1 N 1013,7 20
18.06.2019 04:00:00 18,0 17,7 4 2 N 1013,9 20
18.06.2019 03:00:00 19,8 19,5 4 2 - 1013,9 20
18.06.2019 02:00:00 20,0 18,3 4 2 SE 1013,9 20
18.06.2019 01:00:00 21,0 18,8 2 1 N 1013,8 20
18.06.2019 00:00:00 21,8 19,4 4 2 N 1013,8 20
17.06.2019 23:00:00 21,6 19,0 11 6 NE 1012,9 20
17.06.2019 22:00:00 23,4 19,6 16 9 NNO 1012,8 20
17.06.2019 21:00:00 25,6 19,5 5 3 ENE 1012,0 20
17.06.2019 20:00:00 28,0 19,5 8 4 SE 1011,8 20
17.06.2019 19:00:00 29,0 19,0 9 5 O 1011,8 20
17.06.2019 18:00:00 28,2 18,6 9 5 OSO 1011,8 20
17.06.2019 17:00:00 28,2 20,2 13 7 SO 1011,9 15
17.06.2019 16:00:00 30,4 18,2 21 11 SSO 1012,7 20
17.06.2019 15:00:00 31,0 15,8 11 6 SSO 1012,8 20
17.06.2019 14:00:00 29,0 19,0 21 11 SO 1013,2 25
17.06.2019 13:00:00 29,0 17,8 26 14 SSO 1013,6 20
17.06.2019 12:00:00 28,0 16,6 5 3 NO 1014,0 30
17.06.2019 11:00:00 26,8 16,4 9 5 NNO 1014,0 25
17.06.2019 10:00:00 24,0 15,8 8 4 N 1014,7 20
17.06.2019 09:00:00 21,4 15,5 9 5 N 1014,8 12
17.06.2019 08:00:00 17,2 14,3 4 2 N 1014,5 12
17.06.2019 07:00:00 14,6 13,3 5 3 N 1014,4 15
17.06.2019 06:00:00 12,8 12,3 8 4 N 1014,1 40
17.06.2019 05:00:00 13,6 13,0 8 4 NNO 1014,0 40
17.06.2019 04:00:00 17,0 15,0 4 2 NNO 1014,2 40
17.06.2019 03:00:00 17,2 14,7 9 5 NE 1014,5 40
17.06.2019 02:00:00 17,6 15,6 13 7 NNE 1014,5 40
17.06.2019 01:00:00 19,0 16,4 11 6 N 1014,5 30
17.06.2019 00:00:00 19,4 17,0 13 7 N 1014,4 30
16.06.2019 23:00:00 19,6 17,0 15 8 NNE 1014,1 30
16.06.2019 22:00:00 20,4 16,6 8 4 ESE 1013,8 30
16.06.2019 21:00:00 22,0 17,2 4 2 S 1013,8 20
16.06.2019 20:00:00 26,0 16,3 5 3 OSO 1013,7 20
16.06.2019 19:00:00 28,0 15,0 13 7 OSO 1013,7 20
16.06.2019 18:00:00 29,0 13,7 13 7 OSO 1013,8 20
16.06.2019 17:00:00 30,0 13,3 18 10 OSO 1013,9 30
16.06.2019 16:00:00 30,0 13,3 13 7 O 1014,4 30
16.06.2019 15:00:00 30,0 13,3 11 6 NO 1014,8 20
16.06.2019 14:00:00 29,0 14,0 9 5 N 1014,8 30
16.06.2019 13:00:00 28,0 14,6 11 6 N 1015,8 30
16.06.2019 12:00:00 27,0 12,6 11 6 NO 1015,8 30
16.06.2019 11:00:00 26,0 14,5 15 8 NNO 1015,8 30
16.06.2019 10:00:00 24,0 15,5 9 5 NNO 1015,9 20
16.06.2019 09:00:00 21,6 16,1 4 2 N 1015,8 30
16.06.2019 08:00:00 20,0 16,0 9 5 NNE 1015,8 30
16.06.2019 07:00:00 16,0 13,3 11 6 NE 1015,6 30
16.06.2019 06:00:00 14,8 13,4 9 5 NNE 1015,1 20
16.06.2019 05:00:00 16,0 15,0 5 3 NNE 1015,1 20
16.06.2019 04:00:00 16,4 15,6 9 5 N 1015,6 20
16.06.2019 03:00:00 16,8 15,7 9 5 NNE 1015,7 20
16.06.2019 02:00:00 18,4 16,4 4 2 N 1015,7 20
16.06.2019 01:00:00 18,4 16,4 4 2 N 1015,7 20
16.06.2019 00:00:00 18,4 16,4 13 7 N 1015,7 20
15.06.2019 23:00:00 19,4 17,2 4 2 N 1015,7 20
15.06.2019 22:00:00 20,8 16,4 5 3 ONO 1014,6 20
15.06.2019 21:00:00 23,4 16,7 9 5 O 1014,6 10
15.06.2019 20:00:00 26,6 17,7 15 8 NNO 1014,6 30
15.06.2019 19:00:00 28,0 16,0 16 9 NO 1014,6 20
15.06.2019 18:00:00 28,6 16,2 16 9 NO 1014,9 20
15.06.2019 17:00:00 29,2 16,1 24 13 ONO 1015,0 15
15.06.2019 16:00:00 29,6 17,1 21 11 NO 1015,1 15
15.06.2019 15:00:00 29,4 17,2 21 11 NO 1015,1 12
15.06.2019 14:00:00 29,2 18,9 18 10 NNO 1015,1 10
15.06.2019 13:00:00 29,0 19,9 13 7 NNO 1015,3 10
15.06.2019 12:00:00 28,0 20,0 9 5 NNO 1015,4 9
15.06.2019 11:00:00 27,0 20,3 11 6 NNO 1015,5 9
15.06.2019 10:00:00 25,6 20,4 11 6 N 1015,5 8
15.06.2019 09:00:00 24,0 20,1 15 8 N 1015,1 8
15.06.2019 08:00:00 22,4 19,8 11 6 NNE 1014,9 8
15.06.2019 07:00:00 19,0 14,9 5 3 N 1015,6 10
15.06.2019 06:00:00 19,8 15,7 5 3 N 1015,0 20
15.06.2019 05:00:00 20,0 14,8 4 2 ESE 1014,3 20
15.06.2019 04:00:00 20,0 15,4 5 3 O 1013,9 20
15.06.2019 03:00:00 20,8 16,2 9 5 S 1013,8 10
15.06.2019 02:00:00 20,2 15,6 15 8 E 1013,7 8
15.06.2019 01:00:00 22,0 15,1 0 0 N 1014,6 20
15.06.2019 00:00:00 22,2 15,3 11 6 ESE 1014,8 10
14.06.2019 23:00:00 23,8 16,4 4 2 N 1015,0 10
14.06.2019 22:00:00 24,0 16,0 5 3 ENE 1014,9 20
14.06.2019 21:00:00 27,2 17,4 11 6 SSE 1014,2 15
14.06.2019 20:00:00 27,6 17,7 18 10 S 1013,6 15
14.06.2019 19:00:00 27,8 18,5 26 14 SE 1013,1 20
14.06.2019 18:00:00 28,8 21,6 18 10 SE 1014,1 20
14.06.2019 17:00:00 28,6 22,1 16 9 SSE 1015,0 20
14.06.2019 16:00:00 29,6 21,0 24 13 S 1015,2 20
14.06.2019 15:00:00 29,8 22,8 22 12 SSE 1015,1 20
14.06.2019 14:00:00 32,8 22,0 18 10 SSE 1015,1 30
14.06.2019 13:00:00 30,8 21,0 16 9 S 1015,7 30
14.06.2019 12:00:00 32,2 20,1 16 9 SSE 1015,5 30
14.06.2019 11:00:00 32,2 19,1 15 8 SSE 1015,6 30
14.06.2019 10:00:00 27,2 17,7 5 3 N 1015,8 30
14.06.2019 09:00:00 24,4 15,9 5 3 NE 1015,9 30
14.06.2019 08:00:00 21,8 14,9 9 5 ENE 1015,8 20
14.06.2019 07:00:00 17,8 14,3 8 4 NE 1015,8 25
14.06.2019 06:00:00 15,8 12,9 8 4 NNE 1015,6 30
14.06.2019 05:00:00 15,8 12,9 9 5 NE 1015,5 15
14.06.2019 04:00:00 15,6 13,3 9 5 NE 1015,7 15
14.06.2019 03:00:00 15,6 12,4 9 5 ENE 1016,6 15
14.06.2019 02:00:00 17,2 13,3 8 4 NNE 1016,6 15
14.06.2019 01:00:00 17,0 13,5 9 5 NNE 1016,7 15
14.06.2019 00:00:00 19,0 14,1 5 3 ENE 1016,6 15
13.06.2019 23:00:00 19,0 14,9 8 4 N 1016,1 15
13.06.2019 22:00:00 20,8 15,4 8 4 ESE 1015,9 15
13.06.2019 21:00:00 22,0 15,4 8 4 SSE 1015,7 50
13.06.2019 20:00:00 23,8 13,1 9 5 SSO 1015,8 50
13.06.2019 19:00:00 26,0 9,8 15 8 OSO 1015,7 50
13.06.2019 18:00:00 26,8 10,1 16 9 OSO 1015,8 50
13.06.2019 17:00:00 28,0 10,7 16 9 OSO 1015,7 50
13.06.2019 16:00:00 28,8 11,8 16 9 SSO 1015,4 50
13.06.2019 15:00:00 29,2 11,3 15 8 SO 1015,7 50
13.06.2019 14:00:00 29,2 10,8 15 8 SO 1015,7 50
13.06.2019 13:00:00 28,8 9,5 4 2 N 1015,8 50
13.06.2019 12:00:00 27,0 8,0 4 2 N 1015,8 50
13.06.2019 11:00:00 25,0 5,7 8 4 N 1015,9 50
13.06.2019 10:00:00 23,2 7,3 8 4 N 1015,9 50
13.06.2019 09:00:00 20,6 8,6 8 4 NNO 1015,9 20
13.06.2019 08:00:00 16,8 10,2 8 4 NNO 1015,5 20
13.06.2019 07:00:00 13,2 9,7 4 2 N 1015,4 20
13.06.2019 06:00:00 12,4 9,6 8 4 N 1014,4 20
13.06.2019 05:00:00 13,0 7,9 9 5 NNE 1014,2 20
13.06.2019 04:00:00 14,4 7,5 11 6 NNE 1014,4 20
13.06.2019 03:00:00 14,8 7,8 13 7 NNE 1015,4 20
13.06.2019 02:00:00 15,0 8,2 13 7 NNE 1015,4 20
13.06.2019 01:00:00 16,2 8,4 11 6 N 1013,9 20

tt = Temperatura
td = dewpoint
ff = velocità del vento
dd = direzione del vento
ppp = reduced air pressure
vv = visibility

Stazioni seguenti

WeatherPro
AMSI
MeteoEarth